Temp
-7 -7 -7 -7 -7 -8 -8 -9 -9 -9 -8 -8 -8 -8 -8 -9 -9 -9 -9 -9 -9 -9 -10 -10 -10 -10 -10 -10 -10 -10 -10 -10 -10 -10 -10 -10 -10 -10 -10 -10 -10 -10 -10 -10 -10 -10 -10 -10 -10
-7 -7 -7 -7 -8 -8 -8 -9 -9 -8 -8 -8 -8 -8 -8 -8 -9 -9 -9 -9 -9 -9 -10 -10 -10 -10 -10 -10 -10 -10 -10 -10 -10 -10 -10 -10 -10 -10 -10 -10 -10 -10 -10 -10 -10 -10 -10 -10 -10
-7 -8 -7 -8 -9 -9 -9 -9 -9 -8 -8 -8 -8 -8 -8 -8 -8 -9 -9 -9 -9 -10 -10 -10 -10 -10 -10 -10 -10 -10 -10 -10 -10 -10 -10 -10 -10 -10 -10 -9 -9 -10 -10 -10 -10 -9 -10 -9 -9
-7 -7 -8 -8 -8 -9 -10 -10 -9 -9 -8 -9 -8 -7 -8 -8 -8 -9 -9 -9 -9 -9 -10 -10 -10 -10 -10 -10 -10 -10 -10 -10 -10 -10 -10 -10 -10 -9 -9 -9 -10 -9 -9 -9 -9 -9 -9 -10 -9
-7 -7 -8 -8 -8 -9 -10 -9 -9 -9 -9 -9 -8 -8 -8 -9 -9 -9 -9 -9 -10 -9 -10 -10 -10 -10 -10 -10 -10 -10 -10 -10 -10 -10 -10 -10 -9 -9 -9 -10 -9 -9 -9 -9 -10 -10 -9 -9 -9
-7 -7 -8 -8 -8 -9 -10 -9 -9 -9 -9 -8 -8 -9 -8 -9 -9 -9 -9 -9 -10 -9 -10 -10 -10 -10 -10 -10 -10 -10 -10 -10 -9 -9 -9 -9 -9 -9 -9 -9 -9 -9 -9 -9 -9 -9 -9 -9 -9
-7 -7 -7 -7 -9 -10 -10 -9 -9 -9 -9 -9 -8 -9 -8 -9 -9 -9 -9 -9 -9 -9 -10 -10 -10 -10 -10 -10 -10 -10 -10 -10 -10 -9 -9 -9 -9 -9 -9 -9 -9 -9 -9 -9 -9 -9 -9 -9 -9
-8 -8 -8 -9 -10 -10 -9 -9 -9 -9 -9 -9 -9 -9 -8 -9 -9 -9 -9 -9 -10 -9 -10 -10 -10 -10 -10 -10 -10 -10 -10 -10 -9 -9 -9 -9 -9 -9 -9 -9 -9 -9 -9 -9 -9 -9 -9 -9 -9
-8 -8 -9 -9 -10 -10 -8 -8 -9 -10 -9 -8 -8 -8 -9 -9 -10 -9 -9 -9 -9 -9 -10 -10 -9 -10 -10 -10 -10 -10 -10 -10 -10 -9 -9 -9 -9 -9 -9 -9 -9 -9 -9 -9 -9 -9 -9 -9 -10
-8 -8 -8 -8 -9 -8 -8 -8 -8 -9 -9 -8 -8 -9 -9 -9 -9 -9 -9 -9 -9 -9 -9 -10 -9 -10 -9 -10 -10 -10 -10 -10 -10 -10 -9 -10 -9 -9 -9 -9 -9 -9 -9 -9 -9 -9 -9 -10 -10
-9 -9 -8 -9 -8 -8 -8 -9 -8 -8 -9 -9 -9 -8 -9 -9 -9 -9 -10 -9 -9 -9 -9 -9 -9 -9 -10 -10 -9 -10 -10 -10 -10 -10 -10 -10 -10 -9 -9 -9 -9 -9 -9 -9 -9 -9 -10 -10 -10
-9 -9 -9 -9 -9 -9 -9 -9 -9 -8 -9 -9 -8 -7 -8 -9 -9 -9 -10 -10 -9 -9 -9 -9 -9 -9 -10 -10 -9 -10 -10 -10 -10 -10 -10 -10 -10 -10 -10 -10 -9 -9 -9 -9 -10 -10 -10 -10 -10
-10 -9 -9 -9 -9 -9 -9 -9 -9 -9 -9 -9 -9 -9 -8 -8 -9 -9 -9 -9 -9 -9 -9 -9 -9 -9 -9 -10 -10 -10 -10 -10 -10 -10 -10 -10 -9 -9 -9 -9 -10 -10 -9 -10 -10 -10 -10 -10 -10
-10 -9 -9 -9 -8 -9 -9 -9 -9 -9 -10 -10 -10 -9 -9 -9 -9 -9 -9 -9 -10 -10 -9 -9 -9 -9 -9 -10 -10 -10 -10 -10 -10 -10 -10 -10 -10 -10 -10 -10 -10 -10 -10 -10 -10 -10 -10 -10 -10
-10 -10 -10 -10 -10 -9 -9 -9 -9 -9 -10 -10 -10 -10 -9 -9 -8 -9 -9 -9 -9 -9 -10 -9 -9 -10 -9 -9 -10 -10 -10 -10 -10 -10 -10 -10 -10 -11 -11 -10 -10 -10 -10 -10 -10 -10 -10 -10 -10
-10 -10 -10 -9 -10 -10 -9 -8 -9 -10 -10 -10 -10 -10 -9 -9 -9 -9 -9 -8 -8 -8 -10 -10 -9 -10 -10 -10 -9 -9 -10 -10 -10 -10 -10 -10 -10 -11 -10 -10 -10 -10 -10 -10 -11 -10 -10 -10 -10
-10 -10 -10 -9 -10 -10 -10 -9 -9 -10 -9 -10 -9 -9 -9 -9 -9 -9 -9 -9 -9 -9 -9 -10 -11 -10 -10 -10 -10 -10 -9 -10 -10 -10 -10 -10 -10 -10 -11 -11 -10 -10 -11 -11 -10 -10 -10 -10 -11
-10 -10 -10 -10 -10 -11 -10 -10 -10 -9 -10 -10 -9 -8 -9 -9 -9 -9 -9 -10 -9 -9 -9 -9 -9 -11 -10 -10 -10 -10 -10 -10 -10 -10 -10 -10 -10 -11 -11 -11 -11 -11 -11 -11 -11 -11 -11 -11 -11
-11 -11 -11 -10 -10 -11 -10 -11 -12 -11 -9 -11 -10 -9 -8 -9 -9 -9 -10 -10 -10 -9 -10 -10 -9 -10 -11 -10 -10 -10 -10 -10 -10 -10 -10 -10 -10 -11 -11 -11 -11 -11 -11 -11 -11 -11 -11 -11 -11
-12 -11 -10 -10 -10 -11 -10 -10 -10 -12 -10 -10 -10 -11 -9 -9 -9 -10 -10 -10 -10 -10 -9 -10 -10 -10 -10 -10 -10 -10 -10 -10 -10 -10 -10 -10 -10 -11 -11 -11 -12 -11 -11 -12 -11 -11 -11 -11 -11
-11 -11 -10 -10 -11 -12 -11 -11 -10 -10 -10 -9 -9 -10 -10 -9 -9 -9 -9 -10 -10 -10 -10 -10 -10 -10 -10 -11 -10 -10 -10 -10 -10 -11 -10 -10 -10 -11 -11 -11 -11 -11 -11 -11 -11 -11 -11 -11 -11
-11 -11 -11 -11 -12 -11 -11 -11 -9 -10 -10 -10 -10 -9 -9 -10 -9 -10 -10 -10 -10 -10 -10 -10 -10 -10 -10 -11 -11 -10 -11 -10 -10 -11 -11 -11 -11 -11 -11 -11 -11 -12 -12 -11 -12 -12 -12 -12 -12
-13 -13 -12 -12 -12 -12 -11 -12 -8 -9 -9 -10 -10 -10 -9 -9 -9 -10 -10 -10 -10 -10 -10 -9 -9 -11 -11 -10 -11 -10 -10 -11 -11 -11 -11 -11 -11 -11 -11 -11 -11 -11 -11 -12 -12 -12 -12 -12 -12
-13 -13 -13 -13 -14 -14 -10 -12 -8 -9 -9 -9 -10 -10 -10 -10 -10 -10 -10 -10 -10 -10 -10 -10 -9 -11 -11 -11 -11 -10 -11 -11 -11 -11 -11 -12 -12 -11 -11 -11 -11 -12 -12 -11 -11 -12 -12 -12 -12
-13 -14 -13 -13 -13 -13 -11 -14 -10 -8 -9 -10 -10 -10 -10 -10 -11 -10 -10 -10 -10 -11 -11 -10 -11 -10 -11 -11 -11 -10 -11 -11 -11 -11 -11 -12 -12 -12 -12 -12 -12 -12 -12 -12 -12 -12 -12 -13 -12
-14 -14 -15 -14 -14 -13 -13 -14 -11 -10 -10 -10 -10 -10 -11 -11 -11 -10 -10 -10 -11 -10 -10 -11 -11 -11 -11 -11 -11 -11 -11 -10 -11 -11 -12 -12 -12 -12 -12 -12 -12 -12 -12 -12 -12 -13 -13 -13 -13
-13 -16 -14 -16 -16 -15 -13 -13 -12 -10 -10 -10 -10 -11 -11 -11 -12 -11 -11 -11 -11 -10 -10 -11 -11 -11 -11 -11 -11 -11 -11 -11 -11 -12 -12 -12 -12 -12 -13 -13 -12 -13 -13 -13 -13 -13 -14 -13 -14
-14 -14 -16 -16 -16 -15 -15 -13 -12 -10 -10 -11 -11 -11 -11 -11 -11 -11 -12 -12 -11 -10 -10 -11 -11 -12 -12 -11 -11 -11 -11 -11 -11 -12 -12 -12 -13 -13 -13 -13 -13 -13 -13 -13 -13 -14 -14 -14 -14
-15 -15 -17 -16 -17 -16 -15 -14 -10 -10 -11 -12 -13 -13 -13 -12 -11 -12 -12 -13 -10 -10 -10 -12 -11 -11 -12 -11 -11 -11 -11 -11 -11 -11 -11 -12 -13 -13 -13 -13 -13 -13 -13 -13 -13 -14 -14 -14 -14
-17 -17 -18 -17 -17 -16 -16 -15 -12 -11 -11 -13 -13 -13 -13 -13 -13 -12 -13 -12 -11 -10 -11 -12 -12 -12 -12 -12 -12 -11 -11 -11 -11 -12 -12 -13 -13 -13 -13 -13 -13 -13 -13 -13 -13 -13 -14 -14 -14
Height
5891 5892 5895 5897 5900 5898 5899 5899 5900 5901 5901 5899 5895 5899 5897 5892 5893 5898 5896 5893 5894 5892 5889 5887 5886 5886 5886 5885 5885 5884 5884 5884 5884 5884 5883 5882 5882 5882 5882 5881 5880 5880 5879 5879 5878 5878 5877 5877 5876
5889 5891 5894 5898 5899 5898 5897 5895 5894 5899 5901 5900 5894 5899 5900 5897 5896 5896 5895 5894 5893 5889 5889 5887 5886 5886 5886 5886 5885 5885 5885 5885 5885 5884 5883 5883 5883 5883 5882 5882 5881 5881 5880 5880 5879 5879 5878 5877 5877
5888 5890 5893 5897 5897 5893 5894 5896 5897 5897 5896 5898 5897 5894 5897 5895 5895 5896 5893 5891 5890 5889 5888 5887 5886 5886 5885 5885 5885 5885 5885 5885 5885 5884 5884 5884 5883 5883 5883 5882 5882 5882 5881 5881 5881 5880 5879 5878 5878
5887 5889 5894 5895 5894 5892 5891 5893 5894 5895 5896 5893 5889 5894 5897 5894 5891 5893 5893 5889 5890 5889 5888 5887 5886 5886 5886 5885 5885 5885 5884 5884 5884 5883 5883 5883 5883 5882 5882 5882 5881 5882 5881 5881 5881 5881 5880 5880 5880
5886 5887 5890 5892 5891 5891 5894 5896 5894 5895 5895 5891 5888 5889 5892 5890 5889 5890 5892 5889 5888 5888 5887 5886 5886 5886 5886 5885 5884 5885 5884 5884 5883 5884 5884 5883 5883 5883 5882 5882 5882 5882 5881 5881 5881 5881 5881 5881 5880
5884 5886 5887 5887 5886 5884 5889 5894 5895 5892 5889 5889 5887 5886 5888 5888 5887 5888 5890 5890 5886 5886 5885 5885 5885 5885 5885 5884 5884 5883 5883 5883 5883 5883 5883 5884 5884 5883 5883 5883 5882 5882 5881 5881 5880 5880 5880 5880 5880
5885 5885 5886 5886 5884 5883 5888 5890 5891 5887 5885 5885 5880 5880 5886 5886 5884 5884 5886 5887 5885 5884 5884 5884 5884 5883 5883 5882 5883 5882 5882 5882 5882 5882 5882 5883 5883 5883 5882 5882 5881 5881 5881 5880 5880 5879 5879 5879 5878
5884 5885 5885 5881 5881 5881 5884 5887 5886 5882 5881 5879 5878 5877 5882 5882 5882 5882 5884 5884 5883 5882 5882 5882 5881 5881 5881 5880 5881 5881 5880 5880 5880 5881 5881 5881 5881 5881 5881 5881 5881 5880 5880 5879 5879 5879 5879 5878 5876
5880 5880 5877 5877 5877 5880 5881 5884 5884 5880 5878 5877 5879 5878 5879 5879 5878 5878 5880 5881 5880 5880 5880 5879 5879 5879 5879 5878 5878 5878 5878 5878 5878 5879 5879 5879 5879 5879 5879 5879 5879 5878 5878 5878 5878 5877 5877 5876 5875
5876 5876 5876 5876 5874 5874 5878 5880 5881 5880 5876 5873 5877 5877 5875 5875 5875 5875 5876 5877 5877 5876 5877 5877 5876 5876 5875 5876 5875 5875 5875 5876 5875 5875 5875 5876 5876 5876 5877 5877 5876 5876 5876 5875 5876 5875 5874 5874 5873
5871 5871 5872 5872 5874 5872 5874 5876 5877 5878 5875 5871 5872 5875 5873 5871 5871 5871 5872 5872 5873 5874 5873 5873 5873 5873 5873 5872 5872 5872 5872 5873 5872 5871 5872 5872 5872 5872 5873 5874 5873 5873 5873 5873 5873 5872 5872 5871 5870
5864 5866 5867 5869 5869 5872 5872 5874 5875 5874 5875 5873 5867 5871 5872 5871 5869 5868 5868 5868 5868 5870 5870 5869 5869 5869 5870 5868 5868 5869 5869 5869 5868 5868 5868 5868 5868 5869 5870 5870 5870 5870 5870 5870 5869 5869 5868 5868 5866
5856 5860 5859 5862 5865 5866 5868 5870 5871 5872 5873 5869 5867 5866 5868 5868 5868 5866 5865 5865 5865 5866 5866 5866 5865 5864 5865 5865 5864 5865 5864 5865 5864 5865 5863 5863 5864 5865 5866 5866 5865 5865 5865 5865 5864 5863 5862 5862 5862
5851 5854 5855 5856 5860 5863 5865 5865 5866 5869 5868 5867 5861 5864 5863 5864 5863 5862 5862 5864 5862 5861 5861 5862 5862 5860 5860 5861 5861 5861 5860 5860 5860 5861 5860 5859 5859 5859 5859 5860 5860 5861 5860 5860 5859 5858 5858 5857 5856
5843 5842 5848 5849 5856 5856 5858 5858 5862 5866 5864 5864 5863 5858 5859 5859 5859 5856 5852 5853 5863 5860 5856 5856 5857 5857 5855 5857 5857 5857 5857 5855 5856 5858 5856 5855 5855 5855 5854 5854 5855 5854 5854 5854 5854 5853 5852 5852 5851
5836 5836 5839 5848 5850 5853 5851 5850 5859 5859 5857 5857 5858 5859 5857 5856 5854 5853 5850 5843 5847 5856 5855 5850 5850 5851 5850 5851 5852 5852 5853 5851 5850 5852 5851 5850 5850 5849 5849 5848 5848 5848 5847 5848 5848 5847 5846 5845 5844
5824 5826 5830 5839 5843 5844 5845 5842 5853 5851 5850 5849 5852 5853 5853 5854 5855 5853 5850 5842 5838 5846 5851 5850 5846 5845 5845 5845 5846 5845 5846 5847 5846 5845 5845 5844 5844 5843 5844 5843 5842 5842 5844 5842 5840 5840 5838 5837 5836
5818 5821 5825 5828 5838 5836 5835 5833 5838 5844 5843 5841 5843 5848 5846 5847 5849 5848 5846 5844 5833 5835 5843 5845 5844 5839 5838 5838 5840 5840 5840 5839 5840 5839 5838 5838 5838 5837 5837 5836 5836 5837 5836 5834 5833 5832 5831 5831 5828
5807 5809 5813 5819 5824 5827 5827 5825 5827 5830 5835 5833 5833 5837 5841 5840 5841 5840 5838 5838 5832 5831 5830 5838 5839 5836 5833 5832 5834 5834 5834 5834 5833 5834 5832 5833 5831 5831 5832 5829 5829 5830 5829 5827 5826 5825 5823 5823 5821
5794 5798 5803 5809 5813 5814 5818 5817 5818 5818 5824 5828 5826 5826 5835 5837 5837 5836 5836 5831 5827 5827 5827 5827 5833 5831 5828 5825 5825 5826 5826 5827 5827 5827 5826 5825 5824 5825 5825 5823 5822 5822 5822 5820 5819 5818 5816 5815 5814
5785 5788 5796 5797 5801 5802 5805 5804 5809 5811 5812 5818 5821 5822 5821 5828 5830 5831 5829 5828 5822 5819 5821 5820 5824 5826 5824 5819 5816 5817 5818 5819 5821 5820 5819 5819 5818 5817 5818 5817 5815 5816 5814 5813 5812 5810 5808 5806 5803
5771 5783 5782 5783 5784 5784 5796 5789 5800 5804 5805 5805 5810 5815 5818 5820 5822 5822 5822 5822 5820 5819 5818 5815 5816 5818 5818 5814 5810 5809 5810 5810 5813 5812 5811 5812 5811 5810 5811 5810 5808 5810 5808 5806 5805 5803 5800 5797 5795
5762 5771 5772 5771 5770 5773 5777 5776 5783 5795 5794 5798 5801 5805 5811 5813 5818 5817 5817 5814 5809 5810 5812 5812 5807 5808 5809 5807 5804 5800 5802 5803 5803 5803 5803 5804 5803 5802 5802 5802 5801 5801 5800 5799 5797 5795 5792 5789 5787
5748 5751 5753 5756 5757 5751 5761 5764 5768 5782 5787 5793 5794 5796 5799 5800 5803 5807 5810 5807 5804 5799 5799 5799 5800 5797 5797 5796 5795 5792 5792 5793 5794 5795 5795 5795 5794 5794 5794 5793 5792 5792 5790 5788 5786 5783 5781 5778 5776
5737 5736 5734 5737 5736 5733 5753 5749 5759 5773 5779 5782 5786 5789 5791 5789 5790 5795 5799 5798 5799 5794 5790 5788 5790 5790 5788 5784 5786 5784 5782 5783 5785 5786 5786 5786 5786 5786 5786 5784 5783 5783 5782 5780 5778 5775 5771 5769 5765
5723 5724 5721 5717 5721 5727 5736 5730 5747 5762 5767 5770 5770 5776 5778 5778 5779 5781 5786 5788 5787 5787 5782 5780 5780 5781 5780 5773 5773 5774 5774 5773 5775 5776 5777 5777 5776 5777 5777 5776 5774 5774 5773 5771 5768 5764 5760 5758 5754
5706 5704 5717 5709 5710 5704 5713 5721 5732 5748 5752 5758 5759 5764 5767 5766 5768 5771 5775 5777 5774 5778 5776 5774 5772 5770 5770 5764 5765 5764 5762 5761 5765 5766 5766 5766 5767 5768 5768 5766 5765 5765 5763 5761 5758 5754 5750 5746 5742
5687 5696 5694 5694 5693 5688 5690 5702 5718 5738 5738 5743 5748 5749 5750 5752 5756 5758 5761 5762 5763 5764 5768 5764 5761 5759 5759 5756 5755 5754 5753 5751 5754 5754 5754 5757 5758 5758 5757 5755 5756 5754 5753 5750 5746 5742 5739 5735 5731
5678 5675 5678 5679 5681 5675 5678 5681 5716 5723 5731 5735 5737 5737 5738 5738 5738 5742 5748 5749 5750 5753 5754 5754 5750 5750 5749 5748 5744 5744 5743 5741 5742 5743 5745 5747 5748 5748 5747 5746 5745 5744 5741 5739 5735 5731 5727 5724 5720
5661 5661 5666 5665 5668 5667 5663 5668 5708 5710 5717 5719 5721 5724 5725 5725 5724 5729 5734 5737 5738 5743 5741 5742 5741 5740 5740 5738 5736 5734 5733 5733 5732 5733 5736 5737 5737 5736 5735 5736 5734 5733 5731 5728 5724 5720 5717 5713 5708
Wind_Speed
2 5 5 6 11 15 15 13 11 19 21 22 24 15 18 18 17 14 10 13 11 10 8 4 4 7 8 7 5 3 3 5 5 3 4 2 1 3 4 5 7 8 8 8 8 7 6 7 7
1 3 7 7 17 11 8 12 13 23 21 20 24 17 12 14 14 14 12 12 10 10 9 7 5 6 7 7 5 3 3 2 3 2 2 3 3 4 7 10 11 11 12 11 11 10 9 9 8
1 3 8 7 13 15 13 3 17 23 29 25 21 20 12 13 16 13 13 11 11 10 10 8 7 7 6 5 5 4 4 4 2 1 1 1 4 7 9 10 9 10 11 11 10 11 10 9 9
1 4 7 19 9 7 6 15 21 30 25 20 27 18 11 12 15 15 14 11 10 13 13 10 9 9 8 6 5 6 3 5 5 4 4 4 6 8 9 7 7 8 9 9 8 8 8 8 8
2 6 10 16 11 4 10 23 27 26 19 26 29 23 15 11 13 15 12 11 9 12 13 12 9 9 9 8 5 5 5 4 5 4 5 7 8 8 6 6 6 6 6 6 6 6 6 6 7
3 8 15 19 14 7 14 18 25 31 35 28 22 23 17 14 16 15 15 10 11 11 12 12 10 9 10 10 8 5 4 5 5 7 6 7 9 8 6 5 4 3 2 3 4 5 5 5 5
6 3 7 14 2 3 21 25 23 24 25 22 23 24 16 16 18 15 16 12 12 11 10 11 11 10 10 12 10 8 7 7 7 8 9 10 11 10 9 6 4 2 3 5 6 7 7 8 9
5 8 16 14 8 8 15 10 12 19 23 24 22 24 19 15 14 16 15 16 14 12 10 11 12 12 11 12 12 11 10 9 10 11 12 13 13 13 11 9 9 8 9 9 10 11 12 12 12
13 15 22 20 12 13 11 6 9 17 24 23 22 23 21 18 21 21 18 17 18 16 13 13 14 13 12 12 13 13 13 12 11 14 15 16 15 15 16 15 14 13 13 13 13 13 15 16 16
20 22 21 20 15 19 6 8 6 13 20 21 14 13 21 23 22 21 21 22 18 19 16 15 14 14 12 14 14 16 16 14 14 15 18 18 18 18 19 17 17 17 17 17 17 18 18 18 19
26 25 26 22 19 19 11 11 12 9 15 20 19 16 9 17 20 20 22 25 23 20 20 18 16 15 14 15 15 17 19 18 17 17 18 19 21 22 22 22 22 21 21 20 21 22 21 20 21
30 28 28 25 21 18 17 16 15 14 12 17 22 16 11 11 16 19 23 24 26 24 24 21 18 17 14 17 17 16 20 20 19 19 19 18 21 22 21 22 25 26 24 25 24 20 19 20 21
34 32 34 31 27 23 23 22 19 16 16 18 20 20 16 13 13 16 20 22 23 26 27 24 22 19 16 16 19 17 18 20 21 19 20 21 22 22 24 23 23 23 24 25 25 23 21 21 21
36 35 35 33 30 26 27 26 25 18 18 19 26 19 18 17 17 19 20 16 18 22 26 27 25 25 19 17 16 18 20 20 21 20 20 20 20 21 22 23 22 22 25 25 24 23 24 25 26
42 42 38 37 30 31 30 32 27 22 23 23 24 27 19 19 23 29 28 24 13 14 22 25 27 27 27 22 18 17 19 23 23 21 23 23 22 21 23 24 21 24 24 24 25 25 26 26 27
44 46 43 35 32 31 33 35 25 26 28 31 28 26 24 20 24 26 27 32 27 15 10 23 25 27 29 29 24 21 18 22 25 22 25 26 25 24 24 23 25 25 27 25 26 27 28 28 27
52 52 47 40 35 35 37 40 28 30 33 36 32 28 22 21 20 20 25 31 34 25 15 10 22 29 29 29 28 28 24 22 23 25 25 26 26 27 25 25 27 27 26 28 29 29 30 29 28
53 52 47 46 37 37 38 42 38 32 30 35 37 29 26 24 21 22 25 27 37 35 23 18 16 20 30 32 30 31 29 29 25 26 27 27 27 27 26 26 26 25 27 29 29 29 31 29 31
52 53 53 49 46 42 42 41 25 34 34 33 40 37 29 24 24 27 30 30 33 34 36 25 20 22 27 35 32 33 31 30 30 28 29 28 30 28 27 28 27 25 27 29 30 29 31 31 33
53 53 53 50 48 45 45 45 46 36 40 39 43 42 30 29 25 28 29 32 35 33 35 34 24 25 25 33 34 33 34 31 30 29 31 30 31 30 28 29 29 28 28 30 31 33 33 34 36
56 56 51 51 49 49 49 49 49 51 49 45 43 40 41 33 30 29 30 25 34 36 31 34 33 28 28 32 36 36 35 34 30 31 33 32 32 31 29 31 33 29 31 32 32 33 34 36 37
61 55 58 59 56 59 49 55 54 52 51 53 48 45 40 39 38 33 29 28 37 38 31 37 41 35 29 31 36 36 36 37 33 34 35 33 33 34 33 32 32 29 31 32 33 35 37 38 41
62 56 58 58 57 57 60 60 61 54 55 53 54 51 43 38 34 32 33 37 40 36 36 38 45 42 34 32 34 38 36 37 37 37 38 34 36 36 35 34 34 32 32 33 35 37 40 41 43
57 57 64 62 60 60 65 62 67 59 56 53 52 52 48 44 43 39 35 25 31 39 47 47 42 40 37 33 32 37 35 36 39 39 39 35 38 39 36 36 36 35 36 37 39 41 43 45 46
61 61 64 65 67 72 68 61 70 61 56 55 52 51 48 49 46 40 34 28 32 37 46 43 39 34 37 37 34 36 38 38 40 41 40 37 40 41 39 38 38 39 41 42 43 45 47 47 48
65 64 67 73 72 68 75 74 75 64 59 57 57 50 46 48 42 45 42 35 36 41 40 42 39 33 36 42 39 37 37 41 40 42 42 42 43 44 42 43 42 41 43 46 47 49 50 49 51
64 64 63 67 68 73 73 68 59 50 53 60 59 55 50 49 49 46 44 42 43 34 33 43 44 40 36 45 41 39 38 41 40 42 45 46 46 45 45 48 48 45 47 51 50 51 52 51 53
61 61 57 60 68 74 75 70 61 42 45 43 47 58 57 48 44 41 39 40 47 42 38 38 39 38 38 45 45 44 40 43 43 46 49 49 47 46 49 51 47 48 52 52 52 53 53 53 54
54 60 62 62 54 69 75 77 58 51 46 41 36 39 42 47 52 50 42 40 51 42 36 33 39 35 29 36 40 43 44 44 47 49 48 50 49 49 51 50 53 53 55 53 52 54 54 54 57
53 54 55 53 59 60 65 78 65 58 51 41 40 31 48 57 62 57 44 52 45 31 34 38 38 35 34 36 37 40 47 48 47 49 50 50 51 54 52 53 50 57 55 55 54 55 54 55 59
Wind_Direction
279 210 179 151 118 125 124 125 151 235 245 254 258 284 284 304 311 329 321 325 317 320 334 350 358 356 2 7 359 357 9 6 350 326 278 295 3 40 47 74 75 75 79 75 80 79 82 82 78
313 215 157 151 108 116 169 188 185 239 268 296 278 271 290 292 287 313 314 308 321 336 322 316 320 328 352 359 356 301 277 321 332 343 34 29 37 72 87 80 81 79 82 77 71 69 70 73 78
66 187 171 148 132 96 80 268 229 258 273 285 268 273 270 267 270 294 309 312 334 329 325 307 298 296 328 345 348 315 256 257 253 241 17 75 104 104 96 91 88 84 80 76 73 67 65 70 74
142 152 183 151 151 125 80 259 246 250 273 283 279 285 286 266 277 292 314 311 331 329 334 317 291 289 307 319 334 324 283 248 234 182 182 154 130 117 113 114 99 91 82 83 79 76 60 50 52
149 161 162 181 189 157 207 254 273 280 278 283 282 288 289 265 296 294 308 314 323 325 329 335 305 284 292 305 310 319 324 261 234 198 187 169 153 140 138 121 101 95 82 72 65 59 60 46 27
182 175 173 188 192 203 248 270 275 274 270 274 279 286 287 285 281 286 298 307 298 311 322 332 324 290 284 295 294 284 289 280 234 202 208 190 170 160 166 148 127 106 45 23 11 359 1 3 3
247 195 214 205 104 168 257 267 267 250 262 277 280 278 277 283 283 285 295 311 294 294 305 319 329 314 288 279 280 279 272 257 254 228 214 202 196 188 185 190 206 240 289 308 318 319 323 329 327
219 178 216 141 126 275 273 228 220 251 254 258 271 280 297 301 281 291 295 296 296 290 288 301 316 318 300 283 278 274 272 267 244 237 231 219 212 212 214 223 236 249 264 276 292 301 306 311 312
210 203 193 183 164 248 245 236 221 251 261 269 278 278 297 278 277 283 287 283 289 294 292 296 304 311 303 293 277 271 269 266 260 249 242 235 228 227 227 233 242 253 269 270 280 286 291 293 295
219 222 203 233 214 225 192 237 255 269 277 291 306 286 272 276 275 282 283 282 282 288 294 297 301 303 302 292 283 271 268 268 265 259 251 248 240 238 238 243 249 256 268 276 280 290 290 285 286
226 229 235 241 267 230 227 243 261 253 279 297 302 309 305 298 293 287 281 284 286 287 291 292 298 299 300 289 289 276 271 270 269 267 261 257 254 248 245 245 251 260 268 277 281 285 288 288 288
229 228 240 244 238 246 236 244 257 264 252 260 286 306 325 329 304 302 292 286 289 288 291 293 292 293 298 291 286 285 276 274 273 274 272 270 265 263 266 267 266 268 272 281 285 290 286 287 284
237 232 235 238 240 236 232 245 250 258 273 275 285 295 306 319 323 315 308 297 293 290 289 290 289 287 292 292 288 284 279 276 276 278 278 277 275 275 268 274 281 284 285 283 289 292 290 285 288
244 243 243 240 240 243 248 245 249 253 258 270 281 281 290 303 316 320 313 312 295 287 287 286 286 286 283 282 281 280 282 279 277 277 277 277 279 280 282 279 280 283 284 284 283 271 280 280 284
244 243 240 243 246 244 245 245 251 251 256 254 257 277 282 292 307 317 314 314 312 301 293 289 285 285 287 285 276 269 273 276 276 275 276 276 277 280 283 284 283 282 280 278 275 278 281 280 284
251 252 251 249 249 254 254 249 244 249 249 253 252 258 266 284 300 316 310 309 314 324 321 297 288 283 284 285 283 274 268 272 278 276 273 276 278 277 279 283 279 281 280 282 282 282 285 285 288
247 248 252 251 252 256 257 262 246 256 251 254 255 251 249 263 282 300 303 308 310 312 322 308 292 284 279 280 282 283 278 271 274 276 275 275 278 279 280 284 280 284 290 286 287 290 288 288 291
250 255 256 257 250 255 258 264 267 248 253 257 260 260 256 270 280 291 295 302 304 305 315 322 308 290 280 278 279 280 280 280 272 271 275 278 278 281 285 285 285 290 289 289 288 289 290 292 294
253 253 252 252 257 255 252 255 262 267 251 260 262 260 271 277 284 293 299 296 296 301 310 319 315 304 284 279 278 277 276 275 277 274 274 278 279 283 289 290 290 286 286 287 290 291 290 293 293
251 253 251 252 253 255 255 256 254 246 252 253 259 263 263 274 276 281 289 293 292 298 303 308 311 306 289 275 274 274 273 271 272 273 274 276 279 284 286 288 289 290 292 291 293 292 294 295 295
251 253 252 257 259 258 254 251 251 258 262 264 261 262 275 278 276 283 282 288 292 300 301 302 308 304 296 278 272 270 271 274 273 269 267 268 275 278 281 282 285 288 292 291 290 290 291 292 291
248 251 254 255 257 257 255 256 249 252 258 263 266 265 266 272 282 285 278 283 283 286 283 294 300 299 297 283 274 270 269 270 269 268 269 269 273 277 279 281 283 282 285 287 291 292 293 295 297
254 255 254 254 255 259 253 256 251 248 253 256 258 267 270 267 273 272 275 285 277 274 286 287 296 298 293 284 276 272 268 267 266 267 270 270 272 275 281 284 285 286 289 291 294 296 297 296 297
252 250 251 254 256 252 250 255 250 250 253 257 263 270 275 281 279 271 276 269 276 284 291 295 296 292 289 283 279 279 271 265 265 266 268 269 271 274 281 284 289 291 293 297 298 298 298 297 298
255 256 257 254 247 253 251 252 252 255 255 259 260 264 267 266 271 273 266 268 274 279 289 290 298 291 286 281 281 279 272 263 262 264 265 266 268 273 278 280 286 290 295 296 296 297 296 296 295
253 253 253 259 262 262 257 255 256 260 259 259 260 260 265 268 264 272 278 278 275 280 275 291 300 292 284 281 283 281 268 268 262 264 265 266 266 269 275 278 282 287 290 294 294 294 294 296 296
251 249 254 259 264 264 260 260 263 262 262 257 262 267 260 261 265 269 274 275 275 268 281 289 291 287 280 278 282 280 273 270 265 262 263 264 266 270 272 276 281 285 285 291 291 293 296 296 296
251 254 248 242 249 254 262 259 254 249 268 266 265 267 262 257 253 263 269 275 276 279 282 285 286 291 274 276 282 280 272 266 263 262 262 265 268 271 272 277 284 284 283 291 292 295 295 295 298
249 252 249 248 244 251 255 256 253 250 257 272 270 262 256 257 259 262 263 265 273 277 278 286 283 291 279 281 286 279 270 264 263 264 264 264 265 267 271 274 278 279 286 289 293 293 294 297 299
249 248 245 244 246 249 257 255 256 253 249 263 260 261 254 249 251 258 255 264 270 270 274 285 280 280 280 282 285 282 276 272 267 265 265 265 265 269 272 275 280 282 286 288 291 293 297 297 298